Location: Newark
(51.0089°N, 21.5817°E)
Time: 21:49:49
(UTC+00:00)

XW-2F - Pass Details

Date: 22 February 2020
Orbit: 503 x 521 km, 97.5° (Epoch: 06 April)

Event Time Altitude Azimuth Distance (km) Brightness Sun altitude
Rises 04:56:02 0° 12° (NNE) 2,631 ? -6.7°
Reaches altitude 10° 04:58:08 10° 12° (NNE) 1,743 ? -6.4°
Maximum altitude 05:01:53 82° 285° (WNW) 525 ? -5.8°
Drops below altitude 10° 05:05:38 10° 198° (SSW) 1,738 ? -5.2°
Sets 05:07:43 0° 197° (SSW) 2,623 ? -4.9°
